Location: *
(33.8649°S, 62.1526°E)
Time: 16:48:45
(UTC+00:00)

Cosmos 1766 - Pass Details

Date: 17 January 2021
Orbit: 520 x 544 km, 82.5° (Epoch: 04 March)

Event Time Altitude Azimuth Distance (km) Brightness Sun altitude
Rises 23:16:17 0° 180° (S) 2,687 7.5 -18.6°
Reaches altitude 10° 23:18:30 10° 174° (S) 1,792 6.6 -18.2°
Maximum altitude 23:22:18 47° 99° (E) 712 4.2 -17.6°
Drops below altitude 10° 23:26:05 10° 24° (NNE) 1,778 5.7 -17.0°
Enters shadow 23:27:21 - 20° (NNE) 2,289 6.3 -16.8°
